Weather History for Twentynine Palms, CA

Change the Weather History Date:

Tuesday, May 7, 2013

  Actual Average Record
Temperature  
Mean Temperature 60 °F -  
Max Temperature 73 °F 83 °F 98 °F (1997)
Min Temperature 48 °F 58 °F 48 °F (2013)
Degree Days  
Heating Degree Days 5    
Growing Degree Days 10 (Base 50)    
Moisture  
Dew Point 35 °F    
Average Humidity 38    
Maximum Humidity 57    
Minimum Humidity 24    
Precipitation  
Precipitation 0.00 in - - ()
Sea Level Pressure  
Sea Level Pressure 29.74 in    
Wind  
Wind Speed 9 mph (WNW)    
Max Wind Speed 17 mph    
Max Gust Speed 25 mph    
Visibility 10 miles    
Events      
Averages and records for this station are not official NWS values.
T = Trace of Precipitation, MM = Missing Value Source: NWS Daily Summary

Daily Weather History Graph

Daily Weather History Graph

Search for Another Location

Airport:

Trip Planner

Search our weather history database for the weather conditions in past years. The results will help you decide how hot, cold, wet, or windy it might be!

Date:

Astronomy

May. 07, 2013 Rise Set
Actual Time 5:48 AM PDT 7:33 PM PDT
Civil Twilight 5:21 AM PDT 8:01 PM PDT
Nautical Twilight 4:48 AM PDT 8:34 PM PDT
Astronomical Twilight 4:14 AM PDT 9:09 PM PDT
Moon 4:19 AM PDT (5/7) 5:42 PM PDT (5/7)
Length of Visible Light 14h 39m
Length of Day
13h 45m
Waning Crescent, 5% of the Moon is Illuminated
May 7
Waning Crescent
May 9
New
May 17
First Quarter
May 24
Full
May 31
Last Quarter

Hourly Weather History & Observations

Time (PDT) Temp. Dew Point Humidity Pressure Visibility Wind Dir Wind Speed Gust Speed Precip Events Conditions
12:56 AM 55.0 °F 39.0 °F 55% 29.93 in 10.0 mi SW 16.1 mph 25.3 mph N/A   Clear
1:56 AM 54.0 °F 37.0 °F 53% 29.92 in 10.0 mi SW 11.5 mph - N/A   Clear
2:56 AM 54.0 °F 36.0 °F 51% 29.92 in 10.0 mi SW 12.7 mph - N/A   Clear
3:56 AM 54.0 °F 35.1 °F 49% 29.93 in 10.0 mi NNW 3.5 mph - N/A   Clear
4:56 AM 50.0 °F 35.1 °F 57% 29.93 in 10.0 mi NNE 3.5 mph - N/A   Clear
5:56 AM 48.9 °F 34.0 °F 56% 29.94 in 10.0 mi West 6.9 mph - N/A   Clear
6:56 AM 51.1 °F 34.0 °F 52% 29.96 in 7.0 mi Calm Calm - N/A   Clear
7:56 AM 55.0 °F 35.1 °F 47% 29.97 in 8.0 mi Calm Calm - N/A   Clear
8:56 AM 59.0 °F 34.0 °F 39% 29.97 in 10.0 mi Calm Calm - N/A   Partly Cloudy
9:56 AM 64.9 °F 33.1 °F 31% 29.31 in 10.0 mi NNE 5.8 mph - N/A   Partly Cloudy
10:56 AM 66.0 °F 34.0 °F 30% 29.30 in 10.0 mi NNE 6.9 mph - N/A   Scattered Clouds
11:56 AM 68.0 °F 30.9 °F 25% 29.29 in 10.0 mi NNW 5.8 mph - N/A   Partly Cloudy
12:56 PM 68.0 °F 33.1 °F 27% 29.27 in 10.0 mi NW 6.9 mph - N/A   Scattered Clouds
1:56 PM 71.1 °F 32.0 °F 24% 29.92 in 10.0 mi WSW 10.4 mph 17.3 mph N/A   Scattered Clouds
2:56 PM 70.0 °F 30.9 °F 24% 29.24 in 10.0 mi Calm Calm - N/A   Scattered Clouds
3:56 PM 70.0 °F 32.0 °F 25% 29.23 in 10.0 mi NW 4.6 mph - N/A   Scattered Clouds
4:56 PM 72.0 °F 33.1 °F 24% 29.88 in 10.0 mi WSW 9.2 mph - N/A   Mostly Cloudy
5:56 PM 72.0 °F 33.1 °F 24% 29.88 in 10.0 mi West 9.2 mph 20.7 mph N/A   Partly Cloudy
6:56 PM 70.0 °F 35.1 °F 28% 29.89 in 9.0 mi WNW 17.3 mph 24.2 mph N/A   Clear
7:56 PM 66.9 °F 37.0 °F 33% 29.91 in 10.0 mi WNW 12.7 mph 20.7 mph N/A   Clear
8:56 PM 64.9 °F 37.9 °F 37% 29.27 in 10.0 mi NW 11.5 mph - N/A   Clear
9:56 PM 63.0 °F 37.9 °F 40% 29.93 in 10.0 mi WNW 13.8 mph 21.9 mph N/A   Clear
10:56 PM 61.0 °F 37.9 °F 42% 29.96 in 10.0 mi North 5.8 mph - N/A   Clear
11:56 PM 59.0 °F 39.9 °F 49% 29.98 in 10.0 mi West 10.4 mph - N/A   Clear